Regional Weather Roundup
Issued by NWS Charleston, WV

Home | Current Version | Previous Version | Graphics & Text | Print | Product List | Glossary On
Versions: 1 2 3 4 5 6 7 8 9 10 11 12 13 14 15 16 17 18 19 20 21 22 23 24 25 26 27 28 29 30 31 32 33 34 35 36 37 38 39 40 41 42 43 44 45 46 47 48 49 50
000
ASUS41 KRLX 060310
RWRRLX
West Virginia Regional Weather Roundup
National Weather Service Charleston WV
1100 PM EDT TUE MAY 05 2015

Note: "fair" indicates few or no clouds below 12,000 feet with no
significant weather and/or obstructions to visibility.

WVZ003-060400-
Northern Panhandle of West Virginia

CITY           SKY/WX    TMP DP  RH WIND       PRES   REMARKS
WHEELING       PTCLDY    66  59  78 E5        30.23S
$$

WVZ009-060400-
Northwest West Virginia

CITY           SKY/WX    TMP DP  RH WIND       PRES   REMARKS
PARKERSBURG    CLEAR     66  60  81 CALM      30.23S
$$

WVZ006-060400-
Western West Virginia

CITY           SKY/WX    TMP DP  RH WIND       PRES   REMARKS
HUNTINGTON     CLEAR     66  56  70 CALM      30.21R
$$

WVZ015-060400-
West Central West Virginia

CITY           SKY/WX    TMP DP  RH WIND       PRES   REMARKS
CHARLESTON     CLEAR     66  56  70 CALM      30.22R
$$

WVZ022-031-060400-
North Central West Virginia

CITY           SKY/WX    TMP DP  RH WIND       PRES   REMARKS
CLARKSBURG     CLEAR     64  58  80 CALM      30.24R
MORGANTOWN     PTCLDY    66  60  81 CALM      30.24F
$$

WVZ025-035-042-045-060400-
Southern West Virginia

CITY           SKY/WX    TMP DP  RH WIND       PRES   REMARKS
BECKLEY        PTCLDY    64  50  60 CALM      30.30S
LOGAN            N/A     70  52  52 CALM      30.23R
BLUEFIELD      PTCLDY    68  48  48 SE3       30.32S
LEWISBURG      MOCLDY    65  54  67 CALM      30.30S
$$

WVZ047-060400-
Northern Mountains of West Virginia

CITY           SKY/WX    TMP DP  RH WIND       PRES   REMARKS
ELKINS         FOG       55  53  93 CALM      30.29S VSB 3/4
$$

WVZ052-060400-
Eastern Panhandle of West Virginia

CITY           SKY/WX    TMP DP  RH WIND       PRES   REMARKS
MARTINSBURG    PTCLDY    67  60  78 S5        30.23F
PETERSBURG     FOG       60  57  89 CALM      30.26F VSB 1/2
$$



USA.gov is the U.S. government's official web portal to all federal, state and local government web resources and services.